Regional Weather Roundup
Issued by NWS

Home | Current Version | Previous Version | Text Only | Print | Product List | Glossary On
Versions: 1 2 3 4 5 6 7 8 9 10 11 12 13 14 15 16 17 18 19 20 21 22 23 24 25 26 27 28
000
ASUS44 KBMX 200810
RWRAL

ALABAMA REGIONAL WEATHER ROUNDUP
NATIONAL WEATHER SERVICE BIRMINGHAM AL
200 AM CST MON NOV 20 2017

NOTE: "FAIR" INDICATES FEW OR NO CLOUDS BELOW 12,000 FEET
WITH NO SIGNIFICANT WEATHER AND/OR OBSTRUCTIONS TO VISIBILITY.

THE REMARK "TC" DENOTES TEMPERATURE IN DEGREES CELSIUS.

ALZ001>011-014-016>018-020-200900-
NORTH ALABAMA

CITY           SKY/WX    TMP DP  RH WIND       PRES   REMARKS
MUSCLE SHOALS  CLEAR     29  25  85 CALM      30.25F
HUNTSVILLE     CLEAR     31  26  82 NE3       30.24S
DECATUR        CLEAR     27  25  92 CALM      30.25S
HALEYVILLE     FAIR      26  25  96 CALM      30.24F
GADSDEN        CLEAR     28  28 100 CALM      30.25S
$$

ALZ012-013-022-023-030>036-040>044-200900-
WEST CENTRAL ALABAMA

CITY           SKY/WX    TMP DP  RH WIND       PRES   REMARKS
TUSCALOOSA     CLEAR     32  31  96 CALM      30.24F
DEMOPOLIS        N/A     31  30  94 CALM      30.24S
$$

ALZ015-024>026-033>036-041>044-200900-
CENTRAL ALABAMA

CITY           SKY/WX    TMP DP  RH WIND       PRES   REMARKS
BIRMINGHAM     PTCLDY    31  29  92 CALM      30.24S
MONTGOMERY     CLEAR     32  28  85 CALM      30.22S
SHELBY CO ARPT CLEAR     33  30  88 CALM      30.21F
MAXWELL AFB    CLEAR     35  32  92 CALM      30.21R
GREENVILLE     FAIR      38  29  70 N6        30.19S WCI  33
SELMA          FAIR      30  28  93 CALM      30.23S
PRATTVILLE     FAIR      31  31  97 CALM      30.22S
BESSEMER       FAIR      35  26  69 N7        30.22S WCI  29
TALLADEGA      FAIR      31  30  97 CALM      30.24R
PELL CITY      SUNNY     28  28 100 CALM      30.23S
MARION         FAIR      32  30  94 CALM      30.22S
SYLACAUGA      FAIR      33  32  96 CALM      30.22S
$$

ALZ019-021-028-029-037-038-045>048-200900-
EAST CENTRAL ALABAMA

CITY           SKY/WX    TMP DP  RH WIND       PRES   REMARKS
ANNISTON       CLEAR     29  25  85 CALM      30.22S
ALEXANDER CITY CLEAR     32  29  89 CALM      30.19F
AUBURN         PTCLDY    37  30  75 N10       30.18F WCI  30
$$

ALZ051>064-200900-
SOUTHWEST ALABAMA

CITY           SKY/WX    TMP DP  RH WIND       PRES   REMARKS
MOBILE         CLEAR     40  32  73 N6        30.20F
BROOKLEY FIELD CLEAR     41  36  82 NW8       30.21F
EVERGREEN      CLEAR     35  32  88 CALM      30.19F
$$

ALZ049-050-065>069-200900-
SOUTHEAST ALABAMA

CITY           SKY/WX    TMP DP  RH WIND       PRES   REMARKS
DOTHAN         CLEAR     39  34  82 N6        30.20S WCI  35
OZARK          CLEAR     40  32  73 N8        30.17S WCI  35
TROY           CLEAR     36  33  89 N6        30.19F WCI  31
EUFAULA        FAIR      39  33  79 VRB3      30.18S
$$




USA.gov is the U.S. government's official web portal to all federal, state and local government web resources and services.